This is the latest recevied weather packets stored in our database for station/object K1TTC. If no packets are shown the sender has not sent any weather packets the latest 10 day(s).
| Time | Temp. | Humidity | Pressure | Rain* | Wind** | Luminosity | Snow |
|---|---|---|---|---|---|---|---|
| 1777836071 | 11.67° C | 34% | 1007.3 hPa | 0 mm | - | 171 W/m² | - |
| 1777835474 | 12.22° C | 37% | 1007.2 hPa | 0 mm | - | 163 W/m² | - |
| 1777834869 | 12.22° C | 38% | 1007.3 hPa | 0 mm | - | 253 W/m² | - |
| 1777834268 | 12.22° C | 37% | 1007.3 hPa | 0 mm | - | 485 W/m² | - |
| 1777833668 | 11.67° C | 37% | 1007.4 hPa | 0 mm | - | 438 W/m² | - |
| 1777833070 | 11.67° C | 38% | 1007.5 hPa | 0 mm | - | 385 W/m² | - |
| 1777832468 | 11.67° C | 39% | 1007.5 hPa | 0 mm | - | 410 W/m² | - |
| 1777831951 | 11.11° C | 40% | 1007.5 hPa | 0 mm | - | 434 W/m² | - |
| 1777831337 | 11.11° C | 39% | 1007.7 hPa | 0 mm | - | 446 W/m² | - |
| 1777830668 | 10.56° C | 39% | 1007.6 hPa | 0 mm | - | 357 W/m² | - |
| 1777830068 | 10.56° C | 41% | 1007.6 hPa | 0 mm | - | 299 W/m² | - |
| 1777829466 | 10.56° C | 44% | 1007.6 hPa | 0 mm | - | 292 W/m² | - |
| 1777828866 | 11.11° C | 43% | 1007.5 hPa | 0 mm | - | 211 W/m² | - |
| 1777828263 | 11.11° C | 44% | 1007.3 hPa | 0 mm | - | 483 W/m² | - |
| 1777827663 | 11.11° C | 45% | 1007.4 hPa | 0 mm | - | 448 W/m² | - |
| 1777827062 | 10.56° C | 45% | 1007.4 hPa | 0 mm | - | 431 W/m² | - |
| 1777826462 | 10.56° C | 47% | 1007.4 hPa | 0 mm | - | 466 W/m² | - |
| 1777825861 | 10° C | 50% | 1007.4 hPa | 0 mm | - | 373 W/m² | - |
| 1777825263 | 9.44° C | 54% | 1007.4 hPa | 0 mm | - | 432 W/m² | - |
| 1777824663 | 8.89° C | 56% | 1007.5 hPa | 0 mm | - | 320 W/m² | - |
| 1777824060 | 8.33° C | 57% | 1007.6 hPa | 0 mm | - | 165 W/m² | - |
| 1777823457 | 8.33° C | 59% | 1007.6 hPa | 0 mm | - | 190 W/m² | - |
| 1777822857 | 8.33° C | 59% | 1007.6 hPa | 0 mm | - | 188 W/m² | - |
| 1777822257 | 8.33° C | 59% | 1007.7 hPa | 0 mm | - | 195 W/m² | - |
| 1777821658 | 8.33° C | 60% | 1007.7 hPa | 0 mm | - | 283 W/m² | - |
* Rain latest hour (hover to see other rain measurements)
** Current wind speed in m/s (hover to see current wind gust speed)